Regional Weather Roundup
Issued by NWS

Home | Current Version | Previous Version | Graphics & Text | Print | Product List | Glossary On
Versions: 1 2 3 4 5 6 7 8 9 10 11 12 13 14 15 16 17 18 19 20 21 22 23 24 25 26 27 28 29 30 31 32 33 34 35 36 37 38 39 40 41 42 43 44 45 46 47 48 49 50
000
ASUS43 KFSD 230802
RWRSD

WEATHER ROUNDUP FOR SOUTH DAKOTA
NATIONAL WEATHER SERVICE SIOUX FALLS SD
300 AM CDT WED APR 23 2014

NOTE: "FAIR" INDICATES FEW OR NO CLOUDS BELOW 12,000 FEET WITH NO
SIGNIFICANT WEATHER AND/OR OBSTRUCTIONS TO VISIBILITY.


SDZ001>005-009-010-012>017-230900-
NORTHWEST AND NORTH CENTRAL SOUTH DAKOTA

CITY           SKY/WX    TMP DP  RH WIND       PRES   REMARKS
MOBRIDGE       CLOUDY    56  33  42 SE25G33   29.61F
$$

SDZ012>016-024>037-041>051-057-063-072>074-230900-
SOUTHWEST AND SOUTH CENTRAL SOUTH DAKOTA

CITY           SKY/WX    TMP DP  RH WIND       PRES   REMARKS
RAPID CTY ARPT PTCLDY    54  44  69 SE13      29.51F
PIERRE         CLOUDY    58  32  37 SE30G39   29.56F
CUSTER         MOCLDY    49  39  68 CALM      29.59F
ELLSWORTH AFB  CLOUDY    59  44  57 S20       29.49F
PHILIP         CLOUDY    65  38  36 S35G45    29.49F
PINE RIDGE     CLOUDY    60  43  53 S25G37    29.50F
WINNER         FAIR      59  32  36 SE22      29.67F
$$

SDZ004>011-016>023-039-040-230900-
NORTHEAST SOUTH DAKOTA

CITY           SKY/WX    TMP DP  RH WIND       PRES   REMARKS
ABERDEEN       CLOUDY    51  39  63 SE21      29.80F
WATERTOWN      CLOUDY    51  34  52 SE15G24   29.89F
SISSETON         N/A     46  39  76 S15       29.93F
$$

SDZ017-020-022-023-036>040-048>070-230900-
SOUTHEAST SOUTH DAKOTA

CITY           SKY/WX    TMP DP  RH WIND       PRES   REMARKS
SIOUX FALLS    MOCLDY    53  34  48 SE17G25   29.89F
HURON          CLOUDY    56  33  42 SE17G29   29.80F
CHAMBERLAIN      N/A     57  33  40 S32G39    29.71F
MITCHELL       CLOUDY    56  35  45 SE22      29.84R THUNDER
YANKTON        CLOUDY    55  30  38 SE18G26   29.86F
$$

ABBREVIATIONS USED IN REMARKS
   TC - TEMPERATURE IN CELSIUS
  WCI - WIND CHILL INDEX
   HX - HEAT INDEX
  VSB - VISIBILITY




USA.gov is the U.S. government's official web portal to all federal, state and local government web resources and services.